GW3758 Weather Reports


time (UTC)temp
F
wind
direction
speed
knots
gust
knots
rain 1hr
in
rain 24hr
in
rain mn
in
humidity
%
barometer
mb
20260504070235 52 158 0.0 0.9 0.00 0.00 0.00 53 1010.4
20260504060156 53 359 0.9 2.6 0.00 0.00 0.00 49 1010.5
20260504050624 52 57 0.0 0.9 0.00 0.00 0.00 57 1010.7
20260504050121 52 166 0.0 0.9 0.00 0.00 0.00 56 1010.7
20260504045618 52 106 0.0 1.7 0.00 0.00 0.00 56 1010.7
20260504045118 52 122 0.0 1.7 0.00 0.00 0.00 58 1010.7
20260504044616 52 111 0.0 0.0 0.00 0.00 0.00 59 1010.8
20260504044112 52 91 0.0 0.0 0.00 0.00 0.00 58 1010.8
20260504043609 51 79 0.0 0.0 0.00 0.00 0.00 60 1010.9
20260504043107 51 81 0.0 0.0 0.00 0.00 0.00 60 1010.9
20260504042604 51 93 0.0 0.0 0.00 0.00 0.00 60 1010.9
20260504042100 51 84 0.0 0.0 0.00 0.00 0.00 59 1010.9
20260504041556 51 99 0.0 0.0 0.00 0.00 0.00 60 1010.8
20260504041053 51 95 0.0 0.0 0.00 0.00 0.00 62 1011.0
20260504040551 51 95 0.0 0.0 0.00 0.00 0.00 62 1011.1
20260504040047 51 83 0.0 0.0 0.00 0.00 0.00 61 1011.0
20260504035544 51 79 0.0 0.0 0.00 0.00 0.00 61 1011.1
20260504035040 51 86 0.0 0.0 0.00 0.00 0.00 62 1011.0
20260504034538 51 79 0.0 0.0 0.00 0.00 0.00 63 1011.1
20260504034034 51 93 0.0 0.0 0.00 0.00 0.00 64 1011.1
20260504033532 50 112 0.0 0.0 0.00 0.00 0.00 65 1011.3
20260504033030 50 88 0.0 0.0 0.00 0.00 0.00 66 1011.5
20260504032526 50 130 0.0 0.0 0.00 0.00 0.00 68 1011.4
20260504032023 50 139 0.0 0.0 0.00 0.00 0.00 68 1011.4
20260504031520 50 142 0.0 0.0 0.00 0.00 0.00 67 1011.2
20260504031016 50 126 0.0 1.7 0.00 0.00 0.00 66 1011.3
20260504030514 51 288 0.0 0.0 0.00 0.00 0.00 66 1011.3
20260504030010 51 74 0.0 0.0 0.00 0.00 0.00 66 1011.4
20260504025507 51 41 0.0 0.0 0.00 0.00 0.00 65 1011.5
20260504025004 51 81 0.0 0.0 0.00 0.00 0.00 65 1011.5
20260504024500 51 180 0.9 0.9 0.00 0.00 0.00 65 1011.5
20260504023958 51 68 0.0 0.9 0.00 0.00 0.00 67 1011.7
20260504023454 51 316 0.0 0.0 0.00 0.00 0.00 65 1011.7
20260504022950 51 306 0.9 1.7 0.00 0.00 0.00 64 1012.0
20260504022446 51 291 0.9 1.7 0.00 0.00 0.00 67 1012.0
20260504021943 51 308 0.0 1.7 0.00 0.00 0.00 67 1012.1
20260504021440 51 302 0.9 2.6 0.00 0.00 0.00 67 1012.1
20260504020937 51 298 0.0 1.7 0.00 0.00 0.00 66 1012.4
20260504020434 51 303 1.7 1.7 0.00 0.00 0.00 65 1012.2
20260504015931 52 303 2.6 3.5 0.00 0.00 0.00 67 1012.4
20260504015426 52 311 3.5 6.1 0.00 0.00 0.00 64 1012.6
20260504014923 53 318 3.5 6.1 0.00 0.00 0.00 60 1012.4
20260504014419 54 294 3.5 6.1 0.00 0.00 0.00 53 1012.4
20260504013916 54 225 1.7 6.1 0.00 0.00 0.00 53 1012.1
20260504013415 55 306 3.5 3.5 0.00 0.00 0.00 51 1012.1
20260504012910 55 293 2.6 6.1 0.00 0.00 0.00 49 1012.0
20260504012408 55 309 1.7 2.6 0.00 0.00 0.00 50 1011.8
20260504011905 55 301 1.7 3.5 0.00 0.00 0.00 48 1011.9
20260504011402 56 302 1.7 2.6 0.00 0.00 0.00 48 1011.9
20260504010858 56 321 5.2 8.7 0.00 0.00 0.00 47 1011.8
20260504010354 56 312 4.3 5.2 0.00 0.00 0.00 45 1011.9
20260504005851 56 306 2.6 5.2 0.00 0.00 0.00 45 1011.8
20260504005348 56 293 3.5 5.2 0.00 0.00 0.00 44 1011.6
20260504004845 56 298 1.7 3.5 0.00 0.00 0.00 44 1011.4
20260504004343 56 302 4.3 7.8 0.00 0.00 0.00 43 1011.4
20260504003839 56 307 3.5 5.2 0.00 0.00 0.00 44 1011.4
20260504003336 55 300 1.7 2.6 0.00 0.00 0.00 45 1011.3
20260504002832 54 282 2.6 7.0 0.00 0.00 0.00 46 1011.2
20260504002329 53 79 0.9 1.7 0.00 0.00 0.00 51 1011.2
20260504001827 53 104 0.0 0.0 0.00 0.00 0.00 49 1011.1
20260504001324 54 100 0.0 0.0 0.00 0.00 0.00 50 1011.1
20260504000821 54 325 0.0 0.9 0.00 0.00 0.00 50 1011.1
20260504000318 54 103 0.9 1.7 0.00 0.00 0.00 49 1011.2
20260503235815 54 194 0.0 0.9 0.00 0.00 0.00 47 1011.1
20260503235313 54 222 0.9 1.7 0.00 0.00 0.00 46 1011.2
20260503234805 54 124 0.9 1.7 0.00 0.00 0.00 47 1011.2
20260503234303 55 284 0.9 1.7 0.00 0.00 0.00 46 1011.4
20260503233800 54 288 2.6 2.6 0.00 0.00 0.00 46 1011.6
20260503233255 55 302 3.5 5.2 0.00 0.00 0.00 45 1011.7
20260503232752 55 306 3.5 6.1 0.00 0.00 0.00 46 1011.7
20260503232249 55 303 2.6 6.1 0.00 0.00 0.00 44 1011.5
20260503231747 55 303 5.2 6.1 0.00 0.00 0.00 42 1011.6
20260503231244 55 303 3.5 7.0 0.00 0.00 0.00 41 1011.5
20260503230740 55 309 2.6 5.2 0.00 0.00 0.00 41 1011.5
20260503230237 55 289 1.7 3.5 0.00 0.00 0.00 44 1011.4
20260503225729 55 303 1.7 1.7 0.00 0.00 0.00 41 1011.3
20260503225229 55 308 0.9 1.7 0.00 0.00 0.00 41 1011.3
20260503224727 55 310 2.6 2.6 0.00 0.00 0.00 41 1011.2
20260503224225 55 310 0.9 1.7 0.00 0.00 0.00 41 1011.1
20260503223722 56 314 0.0 2.6 0.00 0.00 0.00 41 1011.1
20260503223219 56 300 0.0 1.7 0.00 0.00 0.00 40 1011.1
20260503222710 56 168 0.9 3.5 0.00 0.00 0.00 39 1011.1
20260503222208 56 261 0.0 0.9 0.00 0.00 0.00 40 1010.9
20260503221706 56 308 1.7 2.6 0.00 0.00 0.00 39 1011.1
20260503221203 56 299 0.9 2.6 0.00 0.00 0.00 41 1011.3
20260503220659 55 305 0.9 0.9 0.00 0.00 0.00 41 1011.2
20260503220156 55 308 1.7 2.6 0.00 0.00 0.00 40 1011.4
20260503215653 56 335 0.9 1.7 0.00 0.00 0.00 40 1011.6
20260503215149 56 302 1.7 2.6 0.00 0.00 0.00 42 1011.6
20260503214648 57 150 0.0 0.9 0.00 0.00 0.00 41 1011.3
20260503214143 56 296 0.0 0.9 0.00 0.00 0.00 43 1011.5
20260503213638 55 292 2.6 3.5 0.00 0.00 0.00 42 1011.2
20260503213134 55 311 1.7 3.5 0.00 0.00 0.00 43 1011.5
20260503212631 55 287 2.6 3.5 0.00 0.00 0.00 42 1011.2
20260503212129 55 308 5.2 6.1 0.00 0.00 0.00 43 1011.2
20260503211627 56 297 2.6 2.6 0.00 0.00 0.00 43 1011.3
20260503211122 55 178 0.9 3.5 0.00 0.00 0.00 44 1011.3
20260503210618 55 277 1.7 2.6 0.00 0.00 0.00 43 1011.4
20260503210115 56 303 3.5 3.5 0.00 0.00 0.00 43 1011.5
20260503205611 55 294 1.7 2.6 0.00 0.00 0.00 43 1011.6
20260503205107 55 328 2.6 2.6 0.00 0.00 0.00 43 1011.6
20260503204604 55 303 3.5 7.0 0.00 0.00 0.00 43 1011.6
20260503204101 55 308 3.5 5.2 0.00 0.00 0.00 43 1011.5
20260503203558 55 310 5.2 6.1 0.00 0.00 0.00 44 1011.5
20260503203055 55 302 2.6 7.0 0.00 0.00 0.00 42 1011.7
20260503202553 56 280 0.9 2.6 0.00 0.00 0.00 41 1011.6
20260503202051 55 317 2.6 5.2 0.00 0.00 0.00 40 1011.7
20260503201549 54 300 2.6 5.2 0.00 0.00 0.00 41 1011.8
20260503201046 54 306 5.2 5.2 0.00 0.00 0.00 43 1011.8
20260503200542 54 287 3.5 5.2 0.00 0.00 0.00 43 1011.9
20260503200039 54 293 2.6 3.5 0.00 0.00 0.00 42 1012.0
20260503195536 55 298 1.7 2.6 0.00 0.00 0.00 41 1011.9
20260503195032 54 297 0.9 1.7 0.00 0.00 0.00 42 1012.0
20260503194530 54 278 1.7 2.6 0.00 0.00 0.00 42 1012.2
20260503194030 54 299 0.9 2.6 0.00 0.00 0.00 42 1012.1
20260503193527 54 303 2.6 3.5 0.00 0.00 0.00 41 1012.2
20260503193022 53 298 3.5 3.5 0.00 0.00 0.00 40 1012.2
20260503192518 54 300 3.5 6.1 0.00 0.00 0.00 39 1012.2
20260503192014 55 316 4.3 6.1 0.00 0.00 0.00 39 1012.3
20260503191511 55 299 0.9 3.5 0.00 0.00 0.00 38 1012.1
20260503191008 54 311 3.5 6.1 0.00 0.00 0.00 38 1012.3
20260503190505 55 323 5.2 6.1 0.00 0.00 0.00 37 1012.3
20260503190002 55 310 2.6 2.6 0.00 0.00 0.00 36 1012.3
20260503185458 54 225 0.9 2.6 0.00 0.00 0.00 38 1012.5
20260503184957 54 292 2.6 3.5 0.00 0.00 0.00 36 1012.4
20260503184454 54 316 3.5 5.2 0.00 0.00 0.00 37 1012.5
20260503183950 55 261 0.0 5.2 0.00 0.00 0.00 36 1012.6
20260503183447 55 311 2.6 7.0 0.00 0.00 0.00 35 1012.7
20260503182944 55 333 2.6 5.2 0.00 0.00 0.00 35 1012.7
20260503182443 55 315 1.7 2.6 0.00 0.00 0.00 35 1012.7
20260503181940 55 303 5.2 5.2 0.00 0.00 0.00 36 1012.8
20260503181437 54 297 1.7 2.6 0.00 0.00 0.00 38 1012.9
20260503180933 55 190 1.7 3.5 0.00 0.00 0.00 36 1013.1
20260503180431 55 312 0.9 3.5 0.00 0.00 0.00 34 1012.9
20260503175928 56 128 0.9 2.6 0.00 0.00 0.00 35 1013.1
20260503175426 54 281 0.9 0.9 0.00 0.00 0.00 35 1013.2
20260503174921 53 293 0.9 2.6 0.00 0.00 0.00 37 1013.4
20260503174420 52 301 5.2 7.0 0.00 0.00 0.00 35 1013.4
20260503173914 53 304 4.3 5.2 0.00 0.00 0.00 33 1013.5
20260503173411 54 310 0.9 5.2 0.00 0.00 0.00 33 1013.5
20260503172908 54 304 0.9 5.2 0.00 0.00 0.00 34 1013.4
20260503172405 52 258 0.0 3.5 0.00 0.00 0.00 35 1013.6
20260503171901 53 309 5.2 6.1 0.00 0.00 0.00 37 1013.6
20260503171358 52 176 0.9 2.6 0.00 0.00 0.00 34 1013.7
20260503170855 52 327 4.3 6.1 0.00 0.00 0.00 34 1013.7
20260503170352 53 318 3.5 5.2 0.00 0.00 0.00 35 1013.8
20260503150744 49 318 0.9 3.5 0.00 0.00 0.00 42 1015.2
20260503150240 48 160 1.7 3.5 0.00 0.00 0.00 41 1015.3
20260503140204 45 301 2.6 3.5 0.00 0.00 0.00 50 1015.5
20260503131134 43 307 2.6 5.2 0.00 0.00 0.00 64 1015.8
20260503130632 43 318 3.5 3.5 0.00 0.00 0.00 67 1015.6
20260503130129 43 305 1.7 2.6 0.00 0.00 0.00 66 1015.7
20260503110522 38 303 0.9 0.9 0.00 0.00 0.00 80 1015.2
20260503090408 40 302 0.0 0.9 0.00 0.00 0.00 77 1015.0
20260503081329 39 285 0.0 0.0 0.00 0.00 0.00 77 1015.1
20260503080826 40 289 0.0 0.0 0.00 0.00 0.00 77 1014.8
20260503080323 40 282 0.0 0.9 0.00 0.00 0.00 77 1014.8